Location: *
(43.0488°S, 179.9871°E)
Time: 01:37:48
(UTC+00:00)

Daily predictions for brighter satellites

Satellite Brightness Start Highest point End
(mag) Time Altitude Azimuth Time Altitude Azimuth Time Altitude Azimuth
Cosmos 2369 Rocket 2.3 06:41:24 10° NNW 06:47:01 84° WSW 06:52:42 10° SSE
Meteor 1-31 Rocket 3.1 06:43:47 10° SSE 06:47:20 40° E 06:50:48 10° N
BlueWalker 3 4.0 06:46:07 10° SW 06:48:55 19° S 06:51:42 10° SE
Cosmos 2263 4.2 06:45:41 10° NNW 06:51:18 78° ENE 06:57:01 10° SSE
Cosmos 1703 Rocket 4.4 06:47:35 10° NNE 06:51:22 29° E 06:55:11 10° SSE
CRYOSAT 2 4.4 06:51:14 10° NNE 06:56:05 66° E 07:01:01 10° S
Okean 2 3.3 06:53:28 10° N 06:57:27 77° E 07:01:31 10° S
Okean 1-7 3.0 06:56:11 10° N 07:00:20 63° E 07:04:35 10° SSE
Cosmos 1733 Rocket 3.6 06:56:20 10° SSW 07:00:41 64° W 07:04:57 10° N
RESURS DK-1 4.3 07:05:15 11° E 07:05:15 11° E 07:05:36 10° E
Cosmos 2266 Rocket 4.3 07:02:01 10° NNE 07:07:55 46° E 07:13:47 10° SSE
ADEOS Rocket 4.1 07:02:49 10° S 07:08:08 45° WSW 07:13:24 10° NW
SL-27 R/B 4.1 07:08:47 10° WSW 07:09:56 14° WNW 07:11:05 10° NW
Okean 3 4.5 07:06:29 10° NNW 07:10:31 50° WSW 07:14:35 10° S
Cosmos 44 3.9 07:06:36 10° SSW 07:11:45 50° SE 07:16:12 14° NE
CZ-4 R/B 3.4 07:11:16 10° ESE 07:11:46 11° ESE 07:11:46 11° ESE
USA 306 2.3 07:09:58 10° NW 07:13:47 79° NE 07:17:10 10° SE
USA 238 DEB 3.5 07:09:57 10° SW 07:16:41 86° SE 07:22:44 11° NE
USA 238 3.5 07:10:04 10° SW 07:16:49 85° SE 07:22:48 11° NE
SL-08 ROCKET BODY 4.4 07:12:57 10° N 07:18:40 57° E 07:24:31 10° SSE
Cosmos 1553 Rocket 4.2 07:13:59 10° S 07:20:28 80° W 07:26:47 10° N
SJ-6B 3.9 07:18:54 10° SE 07:21:44 21° E 07:22:23 20° ENE
Cosmos 405 Rocket 3.7 07:22:24 10° SSW 07:25:46 44° W 07:29:06 10° NNW
Cosmos 2251 Rocket 3.8 07:21:32 10° SSW 07:26:51 54° ESE 07:30:55 17° NE
SL-24 R/B 4.4 07:22:01 10° S 07:27:12 79° E 07:32:03 10° N
Cosmos 2297 Rocket 3.9 07:26:47 10° S 07:30:30 17° SE 07:33:07 13° ESE
Cosmos 1140 Rocket 3.7 07:25:50 10° SSW 07:31:00 72° WNW 07:36:09 10° N
USA 59 Rocket 3.9 07:23:23 10° WSW 07:31:58 28° SSW 07:40:28 10° SE
DELTA 2 DEB (DPAF) 4.0 07:28:44 13° NNE 07:32:22 64° ESE 07:36:33 10° S
Resurs 01 Rocket 3.3 07:33:21 10° SE 07:35:34 17° ESE 07:35:34 17° ESE
Cosmos 1908 Rocket 3.8 07:38:29 10° SSW 07:43:02 73° W 07:47:30 10° N
NOAA 6 4.2 07:37:55 10° SSE 07:43:07 79° WSW 07:48:15 10° NNW
YAOGAN 1 2.6 07:38:54 10° SSE 07:43:18 87° W 07:47:36 10° NNW
Meteor 2-20 4.4 07:38:23 10° S 07:44:30 63° E 07:49:29 16° NNE
Cosmos 407 Rocket 3.6 07:43:15 10° SSW 07:48:30 81° WNW 07:52:44 16° NNE
CZ-2C R/B 4.1 07:46:59 10° S 07:50:18 37° WSW 07:53:32 10° NW
Helios 1B rocket 2.3 07:49:04 10° SSE 07:53:01 83° WSW 07:56:53 10° NNW
Cosmos 1420 Rocket 3.9 07:52:33 10° NNW 07:57:52 78° ENE 08:03:14 10° SSE
Cosmos 2056 Rocket 3.5 07:53:37 10° N 07:58:52 61° ENE 08:04:07 10° SSE
SPOT 1/Viking Rocket 3.5 07:54:22 10° SSE 07:59:36 64° E 08:04:45 10° N
USA 308 3.9 07:58:37 10° WSW 08:02:17 34° NW 08:03:38 26° N
Cosmos 1782 Rocket 3.6 07:59:14 10° S 08:03:47 85° W 08:06:19 26° N
Cosmos 1703 3.3 08:00:13 10° NNW 08:03:55 73° W 08:07:40 10° S
Cosmos 1825 3.6 08:05:45 21° SE 08:05:45 21° SE 08:07:08 10° SSE
USA 215 3.5 08:00:29 27° ENE 08:04:08 60° SSE 08:10:39 10° SW
Okean O Rocket 4.0 08:02:07 10° SE 08:02:15 10° SE 08:02:15 10° SE
Cosmos 489 Rocket 4.3 08:00:22 10° N 08:06:33 75° ENE 08:12:49 10° SSE
USA 305 4.4 08:10:00 10° SW 08:11:18 14° SSW 08:11:53 14° S
Cosmos 1892 3.7 08:17:19 30° SSE 08:17:19 30° SSE 08:19:17 10° SSE
Resurs 1-3 3.8 08:13:06 10° S 08:17:30 70° WSW 08:21:50 10° NNW
Cosmos 1300 Rocket 3.8 08:13:14 10° SSW 08:17:42 68° W 08:19:41 31° N
ACS3 Solar Sail 2.1 08:11:38 10° SSE 08:17:50 50° E 08:20:00 36° NE
USA 276 4.3 08:17:00 10° SW 08:17:52 18° SW 08:17:52 18° SW
ISS -1.1 08:19:13 10° NW 08:19:30 12° NW 08:19:30 12° NW
Cosmos 1655 Rocket 4.2 08:18:06 10° NNW 08:24:21 71° W 08:30:40 10° S
SAR-Lupe-2 3.7 08:22:07 10° S 08:25:46 74° WSW 08:25:59 70° WNW
CZ-4B R/B 3.2 08:23:13 10° SSE 08:26:17 50° SE 08:26:17 50° SE
Cosmos 2315 Rocket 4.3 08:20:54 10° SSW 08:27:11 68° W 08:31:41 19° N
BlueWalker 3 2.7 08:24:00 10° SW 08:27:32 42° SSE 08:27:32 42° SSE
CZ-4B R/B 3.3 08:25:08 10° SSE 08:29:58 88° WSW 08:32:11 33° NNW
SJ 16-02 3.3 08:30:02 10° SSE 08:32:07 17° SE 08:32:07 17° SE
CSL-04 Debris 4.3 08:29:42 10° SSE 08:34:51 51° E 08:34:51 51° E
CZ-4C R/B 3.8 08:37:09 50° WSW 08:37:09 50° WSW 08:40:14 10° SSW
Feng Yun 1-1 Rocket 4.4 08:35:19 10° SSE 08:40:55 55° E 08:40:55 55° E
RESURS DK-1 2.7 08:40:19 45° WNW 08:41:19 62° WSW 08:45:22 10° SSE
Cosmos 2285 Rocket 4.1 08:40:05 10° SSW 08:46:30 57° ESE 08:47:16 53° E
NOSS 3-1 (C) 4.5 08:41:09 10° SSW 08:47:06 31° SE 08:48:20 28° ESE
CZ-4 R/B 1.9 08:43:30 10° S 08:47:14 55° WSW 08:47:14 55° WSW
Cosmos 1656 3.5 08:46:36 30° NNW 08:49:24 86° WSW 08:54:56 10° SSE
Nadezhda 2 Rocket 4.3 08:49:40 51° N 08:51:22 86° E 08:57:35 10° S
SL-24 DEB 4.4 08:53:44 67° WNW 08:53:55 68° W 08:58:39 10° S
Meteor 1-24 Rocket 4.5 08:51:03 12° NNW 08:55:52 48° WSW 09:01:17 10° S
ADEOS 4.5 08:53:24 10° S 08:58:29 48° WSW 09:02:56 13° NW
Cosmos 1850 Rocket 4.5 08:53:59 10° S 08:58:28 49° SE 08:58:28 49° SE
SL-08 R/B 4.4 08:58:09 62° N 08:59:20 85° E 09:05:47 10° S
CARTOSAT-1 4.1 08:56:38 10° S 09:00:34 56° SW 09:00:34 56° SW
Cosmos 676 Rocket 4.5 09:02:04 10° SSW 09:07:08 52° WNW 09:07:23 51° WNW
CZ-4B R/B 3.1 09:03:45 10° SSE 09:09:23 83° WSW 09:09:27 83° W
Cosmos 2360 4.5 09:10:48 58° SE 09:10:48 58° SE 09:15:22 10° SSE
Cosmos 968 Rocket 4.2 09:04:32 10° S 09:08:41 44° SSE 09:08:41 44° SSE
MOS 1-B 4.4 09:04:49 10° SSE 09:09:57 65° SE 09:09:57 65° SE
Cosmos 2227 Rocket 2.9 09:05:41 10° SSW 09:10:29 43° SE 09:10:29 43° SE
Resurs 01 Rocket 2.5 09:08:43 10° S 09:13:02 46° WSW 09:13:02 46° WSW
Cosmos 2297 Rocket 2.2 09:09:35 10° SSW 09:14:55 78° SW 09:14:55 78° SW
Cosmos 1697 Rocket 4.1 09:19:11 27° SE 09:19:11 27° SE 09:21:43 10° SSE
ATLAS CENTAUR R/B 3.7 09:07:01 10° SW 09:16:42 69° SE 09:18:27 57° E
Cosmos 1745 Rocket 4.1 09:22:25 67° SE 09:22:25 67° SE 09:27:52 10° S
USA 59 Rocket 3.8 09:17:54 10° SW 09:25:53 24° S 09:33:08 10° ESE
CSL-04 Rocket 4.3 09:30:40 10° S 09:35:58 51° WSW 09:36:08 51° WSW
ATLAS 3B R/B 4.0 09:36:10 10° SSW 09:41:07 24° SE 09:41:43 23° SE
Okean O Rocket 3.4 09:37:07 10° S 09:39:34 30° SSW 09:39:34 30° SSW
USA 215 3.9 09:47:49 44° WNW 09:47:49 44° WNW 09:53:34 10° WSW
Cosmos 2263 Rocket 3.5 09:51:22 10° SSW 09:54:54 33° SSE 09:54:54 33° SSE
Terra 4.1 09:54:09 10° SSE 09:55:21 18° SSE 09:55:21 18° SSE
ACS3 Solar Sail 3.5 09:56:02 10° S 10:01:27 30° WSW 10:05:10 17° WNW
SJ 16-02 3.9 10:07:25 10° SSW 10:08:49 19° SW 10:08:49 19° SW
NOSS 3-1 (A) 4.4 10:16:37 10° SSW 10:21:15 41° S 10:21:15 41° S
SL-12 R/B(2) 4.3 10:16:58 10° SW 10:24:13 59° W 10:24:13 59° W
Cosmos 1980 Rocket 4.0 10:32:05 25° SSE 10:32:05 25° SSE 10:34:25 10° SSE
ATLAS 2AS CENTAUR R/B 3.6 10:35:13 41° SSE 10:35:13 41° SSE 10:39:40 10° SE
Cosmos 2227 Rocket 4.3 10:50:12 10° SW 10:52:18 19° WSW 10:52:18 19° WSW
USA 59 Rocket 2.8 11:09:48 10° SSW 11:19:10 39° SSE 11:21:50 32° ESE
ATLAS 3B R/B 4.1 11:26:15 10° SW 11:28:56 27° SW 11:28:56 27° SW
Cosmos 2333 Rocket 4.4 11:51:34 19° SE 11:51:34 19° SE 11:53:09 10° SE
Cosmos 2322 Rocket 4.4 11:51:39 20° SSE 11:51:39 20° SSE 11:53:22 10° SSE
